HULIANWANG DIGUI-21

导读

HULIANWANG DIGUI-21即互联网低轨21卫星,是中国于2025年4月28日成功发射的低轨卫星互联网组网卫星。该卫星隶属于我国卫星互联网工程,主要用于构建天地一体化网络通信系统,可为全球范围内用户提供高速互联网接入服务,弥补地面网络覆盖盲区,推动空间信息基础设施建设,助力我国低轨卫星星座组网进程,对促进通信技术发展与数字化建设具有重要意义。

基本信息
目录编号:
63688
目录名称:
HULIANWANG DIGUI-21
国际标识:
2025-086B
轨道中心:
EARTH
卫星名称:
HULIANWANG DIGUI-21
卫星全名:
HULIANWANG DIGUI-21
卫星状态:
在轨 (已飞行501 天)
发射日期:
2025-04-28 UTC
国别 :
中国 (CN)
星等 :
--
轨道信息
数据来源 国际轨道数据 AOE轨道数据
星历时间 2026-09-10T23:05:02+0800
12小时前
查看轨道信息
2026-09-10T23:00:00+0800
12小时前
查看轨道信息
半长轴 7546.048km 7546.049km
偏心率 0.0002167 0.0002225
轨道倾角 86.503° 86.507°
近地点辐角 83.262° 75.743°
升交点赤经 284.433° 284.439°
平近点角 276.876° 267.721°
近地点 1166.275km 1166.233km
远地点 1169.547km 1169.591km
周期 108.727分钟 108.727分钟
每日圈数 13.244131 13.244129
详细信息
使用方式:
暂无
2D轨道图
3D轨道图
轨道高度分析图
轨道倾角分析图
轨道综合分析图
查看轨道综合分析图
交会数据列表
事件ID 空间交会对象 最接近时刻(TCA) 交会距离 交会风险概率(CRP) 交会风险指数(CRI) 操作
CDM_260913-023304-529406-368821
2026-09-13T
02:33:55+0000
2.907 km
极远距离
1.346539E-6 低风险 0.38
与全量物体交会距离演化趋势
与全量物体交会风险概率演化趋势